"2010-03-29 00:00:00",1803157,1.782,83.6,5.899,0.173,12.15,105.7349,13.95,14.92,14.06,0,110.6,13.27,14.75,45.6
"2010-03-29 00:00:30",1803158,2.39,91.8,4.077,0.144,12.17,105.7352,13.95,14.91,14.3,0,110.6,13.27,14.76,53.8
"2010-03-29 00:01:00",1803159,2.493,84.2,3.741,0.167,12.13,105.7358,13.96,14.92,14.4,0,110.6,13.27,14.76,46.2
"2010-03-29 00:01:30",1803160,2.296,83,3.105,0.156,12.14,105.7367,13.96,14.93,14.49,0,110.6,13.27,14.76,45.0
"2010-03-29 00:02:00",1803161,1.98,81.2,5.048,0.21,12.26,105.7367,13.96,14.93,14.57,0,110.6,13.27,14.76,43.2
"2010-03-29 00:02:30",1803162,1.436,95.4,7.34,0.249,12.29,105.7391,13.96,14.92,14.54,0,110.6,13.27,14.77,57.4
"2010-03-29 00:03:00",1803163,1.408,57.99,10.52,0.255,12.31,105.7367,13.96,14.92,14.43,0,110.6,13.27,14.76,20.0
"2010-03-29 00:03:30",1803164,1.689,52.55,5.945,0.186,12.3,105.7379,13.96,14.93,14.26,0,110.6,13.27,14.76,14.5
"2010-03-29 00:04:00",1803165,2.074,36.74,6.469,0.385,12.45,105.7376,13.96,14.93,14.31,0,110.6,13.27,14.76,358.7
"2010-03-29 00:04:30",1803166,1.752,28.45,4.581,0.347,12.51,105.7358,13.96,14.92,14.3,0,110.6,13.27,14.76,350.5
"2010-03-29 00:05:00",1803167,1.709,32.25,6.227,0.187,12.47,105.7362,13.96,14.92,14.69,0,110.6,13.27,14.76,354.2
"2010-03-29 00:05:30",1803168,2.114,35.7,4.715,0.298,12.56,105.7352,13.95,14.91,14.66,0,110.6,13.27,14.76,357.7
"2010-03-29 00:06:00",1803169,1.617,32.04,6.664,0.397,12.59,105.7304,13.94,14.91,14.31,0,110.6,13.27,14.74,354.0
"2010-03-29 00:06:30",1803170,1.073,44.61,10.28,0.173,12.54,105.7325,13.95,14.91,14.32,0,110.6,13.27,14.75,6.6
"2010-03-29 00:07:00",1803171,1.231,43.78,5.134,0.219,12.53,105.7151,13.9,14.91,14.6,0,110.6,13.27,14.70,5.8
"2010-03-29 00:07:30",1803172,1.515,41.48,3.495,0.242,12.46,105.6902,13.84,14.9,15.24,0,110.6,13.27,14.64,3.5
"2010-03-29 00:08:00",1803173,1.317,42.47,18.74,0.308,12.54,105.6736,13.8,14.87,15.47,0,110.6,13.27,14.60,4.5
"2010-03-29 00:08:30",1803174,2.372,52.81,8.56,1.361,14.68,105.6754,13.8,14.98,15.31,0,110.6,13.23,14.60,14.8
"2010-03-29 00:09:00",1803175,1.077,49.46,5.349,0.245,12.68,105.6717,13.79,14.93,15.42,0,110.6,13.27,14.59,11.5
"2010-03-29 00:09:30",1803176,1.513,36.8,2.947,0.193,12.23,105.6413,13.71,14.77,15.15,0,110.6,13.27,14.51,358.8
"2010-03-29 00:10:00",1803177,1.83,28.92,7.297,0.351,12.17,105.6395,13.71,14.74,15.01,0,110.6,13.27,14.51,350.9
"2010-03-29 00:10:30",1803178,1.805,28.17,3.916,0.275,12.2,105.6401,13.71,14.73,15.34,0,110.6,13.27,14.51,350.2
"2010-03-29 00:11:00",1803179,1.817,33.25,9.26,0.223,12.25,105.6419,13.72,14.71,15.26,0,110.6,13.27,14.52,355.2
"2010-03-29 00:11:30",1803180,1.842,36.45,3.127,0.209,12.26,105.6413,13.71,14.69,14.94,0,110.6,13.27,14.51,358.5
"2010-03-29 00:12:00",1803181,2.068,33.02,6.684,0.176,12.29,105.6419,13.72,14.7,14.37,0,110.6,13.27,14.52,355.0
"2010-03-29 00:12:30",1803182,1.606,13.59,8.18,0.147,12.32,105.6419,13.72,14.7,14.18,0,110.6,13.28,14.52,335.6
"2010-03-29 00:13:00",1803183,1.387,359.6,10.39,0.449,12.73,105.6419,13.72,14.7,14.1,0,110.6,13.28,14.52,321.6
"2010-03-29 00:13:30",1803184,2.414,345.5,4.942,0.229,12.53,105.6419,13.72,14.71,14.03,0,110.6,13.27,14.52,307.5
"2010-03-29 00:14:00",1803185,0.855,359.9,18.97,0.536,12.98,105.6419,13.72,14.71,13.98,0,110.6,13.28,14.52,321.9
"2010-03-29 00:14:30",1803186,0.684,9.58,14.09,0.374,12.75,105.6422,13.72,14.72,13.97,0,110.6,13.28,14.52,331.6
"2010-03-29 00:15:00",1803187,0.738,1.55,14.22,0.519,12.84,105.6424,13.72,14.71,13.96,0,110.6,13.28,14.52,323.5
"2010-03-29 00:15:30",1803188,2.053,350.2,5.523,0.451,12.48,105.6441,13.72,14.73,13.97,0,110.6,13.27,14.52,312.2
"2010-03-29 00:16:00",1803189,2.215,344.8,3.631,0.122,12.46,105.6509,13.74,14.71,13.93,0,110.6,13.28,14.54,306.8
"2010-03-29 00:16:30",1803190,2.134,336.7,4.747,0.144,12.55,105.6653,13.78,14.73,13.91,0,110.6,13.28,14.58,298.7
"2010-03-29 00:17:00",1803191,3.081,345.8,9.25,1.544,14.16,105.6678,13.78,14.78,13.94,0,110.6,13.24,14.58,307.8
"2010-03-29 00:17:30",1803192,4.043,342.9,12.02,1.226,16.12,105.6726,13.79,15,14.18,0,110.6,13.24,14.59,304.9
"2010-03-29 00:18:00",1803193,2.684,340.8,6.382,1.151,13.54,105.674,13.8,14.95,14.08,0,110.6,13.24,14.60,302.8
"2010-03-29 00:18:30",1803194,1.88,339.7,11.15,0.483,11.66,105.6689,13.78,14.77,13.96,0,110.6,13.27,14.59,301.7
"2010-03-29 00:19:00",1803195,2.193,319,6.864,0.178,11.53,105.652,13.74,14.77,14,0,110.6,13.27,14.54,281.0
"2010-03-29 00:19:30",1803196,1.743,322.2,12.96,0.419,11.7,105.6422,13.72,14.76,14.02,0,110.6,13.27,14.52,284.2
"2010-03-29 00:20:00",1803197,1.105,354.5,15.34,0.544,12.09,105.6419,13.72,14.75,14.02,0,110.6,13.27,14.52,316.5
"2010-03-29 00:20:30",1803198,0.566,359.1,19.2,0.281,12.13,105.6346,13.7,14.74,14.01,0,110.6,13.27,14.50,321.1
"2010-03-29 00:21:00",1803199,1.203,354.8,19.62,0.732,12.13,105.6104,13.63,14.72,14.09,0,110.6,13.27,14.43,316.8
"2010-03-29 00:21:30",1803200,1.92,348.6,8.07,0.572,12.19,105.6084,13.63,14.69,14.13,0,110.6,13.27,14.43,310.6
"2010-03-29 00:22:00",1803201,1.703,1.506,12.41,0.621,12.29,105.6081,13.63,14.7,14.13,0,110.6,13.27,14.43,323.5
"2010-03-29 00:22:30",1803202,1.168,14.89,6.311,0.282,12.29,105.6081,13.63,14.68,14.13,0,110.6,13.27,14.43,336.9
"2010-03-29 00:23:00",1803203,0.663,350.7,16.12,0.42,12.51,105.6081,13.63,14.67,14.12,0,110.6,13.27,14.43,312.7
"2010-03-29 00:23:30",1803204,0.599,12.26,10.41,0.35,12.51,105.6081,13.63,14.67,14.16,0,110.6,13.27,14.43,334.3
"2010-03-29 00:24:00",1803205,1.161,355.2,12.31,0.48,12.42,105.6081,13.63,14.66,14.19,0,110.6,13.27,14.43,317.2
"2010-03-29 00:24:30",1803206,1.684,348.7,3.456,0.221,12.34,105.6081,13.63,14.65,14.15,0,110.6,13.27,14.43,310.7
"2010-03-29 00:25:00",1803207,0.739,6.508,14.28,0.454,12.81,105.6081,13.63,14.65,14.16,0,110.6,13.27,14.43,328.5
"2010-03-29 00:25:30",1803208,0.522,4.426,19.53,0.369,12.73,105.6081,13.63,14.64,14.18,0,110.6,13.28,14.43,326.4
"2010-03-29 00:26:00",1803209,0.848,13.48,8.78,0.33,12.61,105.6081,13.63,14.66,14.18,0,110.6,13.28,14.43,335.5
"2010-03-29 00:26:30",1803210,0.87,1.637,9.05,0.349,12.81,105.6081,13.63,14.66,14.14,0,110.6,13.28,14.43,323.6
"2010-03-29 00:27:00",1803211,0.766,358.7,7.09,0.257,12.94,105.6081,13.63,14.67,14.08,0,110.6,13.28,14.43,320.7
"2010-03-29 00:27:30",1803212,1.011,352.9,11.6,0.498,12.85,105.6081,13.63,14.65,14.05,0,110.6,13.28,14.43,314.9
"2010-03-29 00:28:00",1803213,1.59,345.3,7.078,0.338,12.68,105.6081,13.63,14.65,14.05,0,110.6,13.28,14.43,307.3
"2010-03-29 00:28:30",1803214,1.79,344.1,2.957,0.086,12.6,105.6081,13.63,14.64,14.04,0,110.6,13.28,14.43,306.1
"2010-03-29 00:29:00",1803215,2.473,341.9,5.29,1.14,13.52,105.6087,13.63,14.67,14.05,0,110.6,13.25,14.43,303.9
"2010-03-29 00:29:30",1803216,2.892,344.7,6.712,1.298,14.76,105.6099,13.63,14.84,14.27,0,110.6,13.25,14.43,306.7
"2010-03-29 00:30:00",1803217,2.599,337.8,9.74,1.241,14.06,105.6114,13.64,14.76,14.19,0,110.6,13.25,14.44,299.8
"2010-03-29 00:30:30",1803218,2.874,335.4,7.734,1.289,13.84,105.6123,13.64,14.8,14.27,0,110.6,13.25,14.44,297.4
"2010-03-29 00:31:00",1803219,1.834,332,5.613,0.11,11.66,105.6158,13.65,14.67,14.18,0,110.6,13.28,14.45,294.0
"2010-03-29 00:31:30",1803220,3.064,327.1,6.871,1.417,13.62,105.6152,13.65,14.87,14.37,0,110.6,13.24,14.45,289.1
"2010-03-29 00:32:00",1803221,1.359,322,5.351,0.069,11.11,105.6164,13.65,14.67,14.22,0,110.6,13.28,14.45,284.0
"2010-03-29 00:32:30",1803222,1.6,317.8,6.041,0.143,10.73,105.6173,13.65,14.68,14.22,0,110.6,13.28,14.45,279.8
"2010-03-29 00:33:00",1803223,1.372,315.1,2.045,0.067,10.75,105.6194,13.66,14.68,14.26,0,110.6,13.28,14.46,277.1
"2010-03-29 00:33:30",1803224,1.214,320.7,2.37,0.107,10.83,105.6224,13.67,14.7,14.26,0,110.6,13.28,14.47,282.7
"2010-03-29 00:34:00",1803225,1.365,321.9,4.66,0.098,10.84,105.6254,13.67,14.7,14.25,0,110.6,13.28,14.47,283.9
"2010-03-29 00:34:30",1803226,1.375,322.7,3.257,0.145,11.1,105.6286,13.68,14.69,14.24,0,110.6,13.28,14.48,284.7
"2010-03-29 00:35:00",1803227,1.433,339.6,6.192,0.113,11.45,105.6284,13.68,14.67,14.23,0,110.6,13.28,14.48,301.6
"2010-03-29 00:35:30",1803228,1.822,335.8,4.872,0.284,11.63,105.6174,13.65,14.67,14.23,0,110.6,13.28,14.45,297.8
"2010-03-29 00:36:00",1803229,2.278,329.1,4.05,0.85,11.94,105.6113,13.64,14.67,14.24,0,110.6,13.25,14.44,291.1
"2010-03-29 00:36:30",1803230,2.911,330.9,6.657,1.28,14.47,105.6057,13.62,14.86,14.43,0,110.6,13.24,14.42,292.9
"2010-03-29 00:37:00",1803231,2.024,322.1,2.945,0.719,12.2,105.6037,13.62,14.67,14.26,0,110.6,13.24,14.42,284.1
"2010-03-29 00:37:30",1803232,3.044,327.5,5.807,1.432,14.21,105.6085,13.63,14.81,14.42,0,110.6,13.24,14.43,289.5
"2010-03-29 00:38:00",1803233,3.345,327.8,11.84,1.354,13.77,105.6079,13.63,14.73,14.38,0,110.6,13.23,14.43,289.8
"2010-03-29 00:38:30",1803234,2.654,323.3,5.821,0.938,12.38,105.6085,13.63,14.79,14.48,0,110.5,13.24,14.43,285.3
"2010-03-29 00:39:00",1803235,3.383,321.4,5.247,1.183,12.74,105.6083,13.63,14.63,14.31,0,110.6,13.24,14.43,283.4
"2010-03-29 00:39:30",1803236,2.553,322.1,2.357,0.069,11.34,105.5959,13.6,14.61,14.32,0,110.6,13.27,14.40,284.1
"2010-03-29 00:40:00",1803237,3.627,330.4,6.948,1.243,12.75,105.5821,13.56,14.79,14.58,0,110.6,13.24,14.36,292.4
"2010-03-29 00:40:30",1803238,3.863,329.8,6.093,1.243,12.16,105.5762,13.55,14.64,14.57,0,110.6,13.24,14.35,291.8
"2010-03-29 00:41:00",1803239,3.147,326.6,1.76,0.13,11.1,105.5748,13.54,14.55,14.52,0,110.5,13.27,14.34,288.6
"2010-03-29 00:41:30",1803240,2.954,328.2,2.532,0.118,11.14,105.5686,13.53,14.54,14.56,0,110.5,13.28,14.33,290.2
"2010-03-29 00:42:00",1803241,3.079,327.2,1.711,0.215,11.28,105.5596,13.5,14.52,14.61,0,110.5,13.28,14.30,289.2
"2010-03-29 00:42:30",1803242,3.691,331.5,2.426,0.125,11.56,105.5433,13.46,14.5,14.65,0,110.5,13.28,14.26,293.5
"2010-03-29 00:43:00",1803243,3.502,334.3,3.117,0.544,12.29,105.5424,13.46,14.58,14.76,0,110.5,13.28,14.26,296.3
"2010-03-29 00:43:30",1803244,4.614,333.4,8.05,1.439,14.33,105.5424,13.46,14.61,14.87,0,110.5,13.25,14.26,295.4
"2010-03-29 00:44:00",1803245,5.735,337.2,6.89,1.146,15.98,105.5373,13.45,14.69,15,0,110.5,13.25,14.25,299.2
"2010-03-29 00:44:30",1803246,4.657,328.5,7.204,1.271,13.41,105.5126,13.38,14.58,14.92,0,110.5,13.25,14.18,290.5
"2010-03-29 00:45:00",1803247,4.562,320.9,6.013,0.677,11.92,105.5086,13.37,14.54,15.04,0,110.5,13.25,14.17,282.9
"2010-03-29 00:45:30",1803248,4.944,316.7,2.388,0.126,11.49,105.5086,13.37,14.48,15.13,0,110.5,13.28,14.17,278.7
"2010-03-29 00:46:00",1803249,6.219,321.5,7.3,1.412,13.48,105.503,13.36,14.48,15.18,0,110.5,13.25,14.16,283.5
"2010-03-29 00:46:30",1803250,5.677,318.7,7.65,1.367,13.2,105.4872,13.32,14.58,15.37,0,110.5,13.25,14.12,280.7
"2010-03-29 00:47:00",1803251,5.768,311,2.028,0.27,11.17,105.4745,13.29,14.36,15.26,0,110.5,13.28,14.09,273.0
"2010-03-29 00:47:30",1803252,4.767,311.1,3.506,0.741,11.66,105.4455,13.21,14.32,15.27,0,110.5,13.25,14.01,273.1
"2010-03-29 00:48:00",1803253,5.33,312.4,4.624,0.909,12.38,105.4382,13.19,14.4,15.39,0,110.5,13.25,13.99,274.4
"2010-03-29 00:48:30",1803254,6.378,321.1,5.813,1.248,14.88,105.421,13.15,14.34,15.3,0,110.5,13.25,13.95,283.1
"2010-03-29 00:49:00",1803255,7.038,325.7,5.955,1.184,15.31,105.4072,13.11,14.44,15.54,0,110.5,13.25,13.91,287.7
"2010-03-29 00:49:30",1803256,5.074,316.2,8.24,1.08,13.03,105.4072,13.11,14.45,15.66,0,110.5,13.25,13.91,278.2
"2010-03-29 00:50:00",1803257,4.799,314.3,2.242,0.217,11.13,105.3994,13.09,14.18,15.31,0,110.5,13.28,13.89,276.3
"2010-03-29 00:50:30",1803258,5.547,314.9,6.272,0.796,12.05,105.3766,13.04,14.34,15.59,0,110.5,13.25,13.83,276.9
"2010-03-29 00:51:00",1803259,6.148,319,6.177,1.518,13.05,105.3782,13.04,14.15,15.38,0,110.5,13.25,13.84,281.0
"2010-03-29 00:51:30",1803260,5.462,318.2,4.562,0.499,12.07,105.3762,13.04,14.27,15.56,0,110.5,13.29,13.83,280.2
"2010-03-29 00:52:00",1803261,5.982,316.1,1.18,0.412,11.28,105.3512,12.97,14.15,15.55,0,110.5,13.29,13.77,278.1
"2010-03-29 00:52:30",1803262,7.174,322.8,6.518,1.48,13.82,105.3557,12.98,14.19,15.81,0,110.5,13.25,13.78,284.8
"2010-03-29 00:53:00",1803263,6.257,317.5,5.004,1.04,12.59,105.3545,12.98,14.21,15.96,0,110.5,13.26,13.78,279.5
"2010-03-29 00:53:30",1803264,7.767,325.1,6.669,1.091,15.68,105.3369,12.93,14.25,15.93,0,110.5,13.25,13.73,287.1
"2010-03-29 00:54:00",1803265,6.569,320.8,6.797,1.401,13.52,105.3367,12.93,14.11,15.85,0,110.5,13.25,13.73,282.8
"2010-03-29 00:54:30",1803266,5.962,319.5,1.814,0.149,11.26,105.3321,12.92,13.97,15.82,0,110.5,13.28,13.72,281.5
"2010-03-29 00:55:00",1803267,6.026,323.1,4.016,0.717,12.2,105.3127,12.87,14.12,16.18,0,110.5,13.25,13.67,285.1
"2010-03-29 00:55:30",1803268,6.177,324.4,7.317,1.286,13.14,105.3076,12.86,13.94,16.14,0,110.5,13.25,13.66,286.4
"2010-03-29 00:56:00",1803269,5.474,323.5,3.697,0.726,11.65,105.3037,12.85,13.99,16.33,0,110.5,13.25,13.65,285.5
"2010-03-29 00:56:30",1803270,6.399,327.8,6.61,1.219,13.43,105.2761,12.78,14.04,16.5,0,110.5,13.25,13.58,289.8
"2010-03-29 00:57:00",1803271,5.14,327.2,2.264,0.188,11.58,105.2738,12.77,13.85,16.4,0,110.5,13.29,13.57,289.2
"2010-03-29 00:57:30",1803272,5.939,332.5,6.85,1.359,13.31,105.2682,12.76,13.97,16.69,0,110.5,13.25,13.56,294.5
"2010-03-29 00:58:00",1803273,6.534,334.7,5.939,1.078,15.56,105.242,12.69,14.04,16.63,0,110.5,13.25,13.49,296.7
"2010-03-29 00:58:30",1803274,5.601,325.4,4.607,0.995,11.72,105.24,12.69,13.78,16.37,0,110.5,13.26,13.48,287.4
"2010-03-29 00:59:00",1803275,5.453,326.8,9.27,0.876,11.99,105.224,12.65,13.81,14.83,0,110.5,13.26,13.44,288.8
"2010-03-29 00:59:30",1803276,5.772,331.7,7.591,1.277,12.57,105.2062,12.6,13.74,15.55,0,110.5,13.26,13.40,293.7
"2010-03-29 01:00:00",1803277,7.263,331.6,7.234,1.503,14.21,105.204,12.59,13.87,15.16,0,110.5,13.26,13.39,293.6
"2010-03-29 01:00:30",1803278,6.572,327.9,7.026,1.042,12.33,105.1795,12.53,13.76,14.03,0,110.5,13.26,13.33,289.9
"2010-03-29 01:01:00",1803279,6.654,325.5,7.901,1.343,13.35,105.1724,12.51,13.71,13.59,0,110.5,13.26,13.31,287.5
"2010-03-29 01:01:30",1803280,6.871,322.5,3.84,1.131,13.03,105.1651,12.49,13.79,13.68,0,110.5,13.26,13.29,284.5
"2010-03-29 01:02:00",1803281,7.387,330.5,5.989,1.286,14.68,105.1395,12.43,13.85,13.65,0,110.4,13.26,13.22,292.5
"2010-03-29 01:02:30",1803282,6.81,321.8,6.925,1.111,12.89,105.1393,12.43,13.65,13.47,0,110.4,13.27,13.22,283.8
"2010-03-29 01:03:00",1803283,5.775,316.9,2.641,0.357,11.24,105.1165,12.37,13.52,13.32,0,110.4,13.3,13.17,278.9
"2010-03-29 01:03:30",1803284,5.966,317.3,6.856,1.406,12.63,105.1137,12.36,13.5,13.44,0,110.4,13.26,13.16,279.3
"2010-03-29 01:04:00",1803285,6.724,318.9,5.868,1.361,14.79,105.1135,12.36,13.67,14.21,0,110.4,13.27,13.16,280.9
"2010-03-29 01:04:30",1803286,5.543,318.9,3.971,1.21,13.7,105.0936,12.31,13.56,14.04,0,110.4,13.27,13.11,280.9
"2010-03-29 01:05:00",1803287,4.273,321.4,5.182,0.354,12.05,105.0962,12.32,13.55,14.19,0,110.4,13.31,13.11,283.4
"2010-03-29 01:05:30",1803288,5.928,316.2,2.741,0.654,11.41,105.0896,12.3,13.44,13.8,0,110.4,13.31,13.10,278.2
"2010-03-29 01:06:00",1803289,8.2,325.2,8.37,1.346,15.34,105.0721,12.26,13.61,13.73,0,110.4,13.27,13.05,287.2
"2010-03-29 01:06:30",1803290,7.316,323.9,7.249,1.352,14.53,105.071,12.25,13.52,13.51,0,110.4,13.28,13.05,285.9
"2010-03-29 01:07:00",1803291,5.603,317.6,3.752,0.241,11.33,105.0502,12.2,13.31,13.33,0,110.4,13.31,13.00,279.6
"2010-03-29 01:07:30",1803292,6.129,323.7,5.449,1.23,12.19,105.0389,12.17,13.28,13.47,0,110.4,13.28,12.97,285.7
"2010-03-29 01:08:00",1803293,6.747,328.3,6.676,1.478,13.78,105.0341,12.16,13.49,13.64,0,110.4,13.28,12.95,290.3
"2010-03-29 01:08:30",1803294,7.12,327.8,6.257,1.378,14.35,105.0144,12.11,13.46,13.47,0,110.4,13.28,12.90,289.8
"2010-03-29 01:09:00",1803295,5.799,324.8,4.505,1.095,12.22,105.0051,12.09,13.2,13.33,0,110.4,13.28,12.88,286.8
"2010-03-29 01:09:30",1803296,6.147,324,5.028,0.811,12.22,104.9969,12.06,13.25,13.37,0,110.4,13.28,12.86,286.0
"2010-03-29 01:10:00",1803297,7.654,330.7,6.613,1.333,14.84,104.9727,12,13.38,13.35,0,110.4,13.28,12.80,292.7
"2010-03-29 01:10:30",1803298,6.524,328.7,6.077,1.339,13,104.9712,12,13.21,13.26,0,110.4,13.28,12.79,290.7
"2010-03-29 01:11:00",1803299,4.91,322.9,2.139,0.326,11.32,104.9681,11.99,13.1,13.24,0,110.4,13.31,12.78,284.9
"2010-03-29 01:11:30",1803300,4.899,319.3,4.361,0.901,11.6,104.9419,11.92,13.08,13.62,0,110.4,13.28,12.72,281.3
"2010-03-29 01:12:00",1803301,6.806,330.6,5.846,1.302,14.24,104.9374,11.91,13.28,13.9,0,110.4,13.28,12.71,292.6
"2010-03-29 01:12:30",1803302,7.02,325.1,9.4,1.5,14.48,104.936,11.91,13.18,13.57,0,110.4,13.28,12.70,287.1
"2010-03-29 01:13:00",1803303,5.577,317.7,2.273,0.235,11.34,104.9167,11.86,13.01,13.45,0,110.4,13.32,12.65,279.7
"2010-03-29 01:13:30",1803304,5.991,321,3.353,1.078,12.07,104.9095,11.84,13,13.46,0,110.4,13.28,12.63,283.0
"2010-03-29 01:14:00",1803305,7.033,325.8,7.662,1.243,15.34,104.9157,11.86,13.22,13.74,0,110.4,13.28,12.65,287.8
"2010-03-29 01:14:30",1803306,6.272,321.7,7.031,0.959,13.38,104.9085,11.84,13.14,13.73,0,110.4,13.28,12.63,283.7
"2010-03-29 01:15:00",1803307,5.57,316.8,1.886,0.148,11.29,104.8963,11.81,12.9,13.32,0,110.4,13.32,12.60,278.8
"2010-03-29 01:15:30",1803308,6.292,318.7,5.352,1.235,12.54,104.9008,11.82,13.04,13.58,0,110.4,13.29,12.61,280.7
"2010-03-29 01:16:00",1803309,6.928,326.1,8.05,1.328,14.7,104.9015,11.82,13.1,13.68,0,110.3,13.29,12.61,288.1
"2010-03-29 01:16:30",1803310,6.024,326.4,7.432,1.298,13.71,104.8782,11.76,13.01,13.61,0,110.3,13.29,12.55,288.4
"2010-03-29 01:17:00",1803311,5.352,324.1,1.55,0.159,11.18,104.8714,11.74,12.82,13.48,0,110.3,13.33,12.54,286.1
"2010-03-29 01:17:30",1803312,6.755,329.8,7.024,1.442,13.99,104.8714,11.74,12.9,13.51,0,110.3,13.29,12.54,291.8
"2010-03-29 01:18:00",1803313,7.356,330.8,7.496,1.298,14.62,104.8686,11.74,13,13.78,0,110.3,13.29,12.53,292.8
"2010-03-29 01:18:30",1803314,6.51,328.4,8.36,1.26,13.45,104.8531,11.7,13.01,14.06,0,110.3,13.29,12.49,290.4
"2010-03-29 01:19:00",1803315,6.114,321,3.205,0.264,11.34,104.8376,11.66,12.74,13.51,0,110.3,13.33,12.45,283.0
"2010-03-29 01:19:30",1803316,6.75,330.9,9.5,1.293,13.17,104.8376,11.66,12.88,13.82,0,110.3,13.29,12.45,292.9
"2010-03-29 01:20:00",1803317,7.605,335.5,6.817,1.269,15.33,104.8368,11.65,12.91,13.76,0,110.3,13.3,12.45,297.5
"2010-03-29 01:20:30",1803318,6.198,326.1,5.448,0.862,12.23,104.821,11.61,12.84,13.73,0,110.3,13.3,12.41,288.1
"2010-03-29 01:21:00",1803319,5.828,322.5,2.588,0.149,11.28,104.8046,11.57,12.74,13.52,0,110.3,13.33,12.36,284.5
"2010-03-29 01:21:30",1803320,6.974,326.9,5.94,1.305,13.42,104.8038,11.57,12.79,13.6,0,110.3,13.3,12.36,288.9
"2010-03-29 01:22:00",1803321,7.198,330,6.604,1.308,15.23,104.8038,11.57,12.88,13.67,0,110.3,13.3,12.36,292.0
"2010-03-29 01:22:30",1803322,6.821,329.2,6.057,1.134,12.27,104.8018,11.57,12.63,13.48,0,110.3,13.3,12.36,291.2
"2010-03-29 01:23:00",1803323,5.893,323.9,3.446,0.168,11.32,104.7917,11.54,12.61,13.45,0,110.3,13.34,12.33,285.9
"2010-03-29 01:23:30",1803324,7.427,333.2,6.588,1.317,14.28,104.7722,11.49,12.79,13.59,0,110.3,13.31,12.28,295.2
"2010-03-29 01:24:00",1803325,7.521,334.4,7.746,1.408,15.09,104.7735,11.49,12.88,13.73,0,110.3,13.31,12.28,296.4
"2010-03-29 01:24:30",1803326,6.823,323.8,7.448,0.986,12.71,104.7767,11.5,12.6,13.39,0,110.3,13.31,12.29,285.8
"2010-03-29 01:25:00",1803327,7.331,324.1,6.259,1.407,13.33,104.7812,11.51,12.67,13.43,0,110.3,13.31,12.30,286.1
"2010-03-29 01:25:30",1803328,7.406,323.8,6.889,1.298,13.09,104.7821,11.51,12.7,13.36,0,110.3,13.31,12.31,285.8
"2010-03-29 01:26:00",1803329,7.213,324.1,5.796,1.253,12.54,104.7671,11.48,12.65,13.19,0,110.3,13.31,12.27,286.1
"2010-03-29 01:26:30",1803330,6.444,325.3,6.744,0.87,12.47,104.7576,11.45,12.67,13.21,0,110.3,13.31,12.24,287.3
"2010-03-29 01:27:00",1803331,6.505,321.2,4.931,0.755,11.86,104.76,11.46,12.65,13.23,0,110.3,13.3,12.25,283.2
"2010-03-29 01:27:30",1803332,7.836,331,6.276,1.222,15.49,104.7618,11.46,12.75,13.27,0,110.3,13.3,12.25,293.0
"2010-03-29 01:28:00",1803333,7.361,326.5,6.575,1.355,13.97,104.7686,11.48,12.65,13.21,0,110.3,13.3,12.27,288.5
"2010-03-29 01:28:30",1803334,6.219,320.1,1.318,0.129,11.28,104.7707,11.49,12.49,13.04,0,110.3,13.34,12.28,282.1
"2010-03-29 01:29:00",1803335,6.949,323.3,5.774,1.148,13.09,104.7651,11.47,12.64,13.23,0,110.3,13.31,12.26,285.3
"2010-03-29 01:29:30",1803336,7.4,324.1,6.492,1.269,14.25,104.751,11.44,12.74,13.34,0,110.3,13.3,12.23,286.1
"2010-03-29 01:30:00",1803337,7.482,323.1,8.01,1.332,13.43,104.7377,11.4,12.53,13.12,0,110.3,13.3,12.19,285.1
"2010-03-29 01:30:30",1803338,7.411,320.5,7.733,1.29,12.89,104.7377,11.4,12.5,13.12,0,110.2,13.31,12.19,282.5
"2010-03-29 01:31:00",1803339,7.79,321.6,7.695,1.192,13.18,104.7377,11.4,12.58,13.18,0,110.2,13.31,12.19,283.6
"2010-03-29 01:31:30",1803340,7.6,323.9,6.761,1.189,13.16,104.7377,11.4,12.55,13.15,0,110.2,13.31,12.19,285.9
"2010-03-29 01:32:00",1803341,6.598,320.4,5.658,0.904,12.4,104.7332,11.39,12.58,13.14,0,110.2,13.31,12.18,282.4
"2010-03-29 01:32:30",1803342,7.038,322.2,6.46,1.289,12.71,104.7234,11.36,12.42,12.89,0,110.3,13.31,12.16,284.2
"2010-03-29 01:33:00",1803343,7.956,323.9,7.287,1.458,14.03,104.7095,11.33,12.59,12.97,0,110.3,13.31,12.12,285.9
"2010-03-29 01:33:30",1803344,8.29,323.7,6.868,1.252,14.04,104.7039,11.31,12.62,13.04,0,110.3,13.31,12.11,285.7
"2010-03-29 01:34:00",1803345,8.03,321.7,7.444,1.305,12.77,104.7039,11.31,12.38,12.66,0,110.3,13.32,12.11,283.7
"2010-03-29 01:34:30",1803346,6.706,314.6,5.826,1.04,12.38,104.7039,11.31,12.5,12.83,0,110.3,13.32,12.11,276.6
"2010-03-29 01:35:00",1803347,7.311,321.6,7.246,1.25,13.34,104.7025,11.31,12.45,12.75,0,110.2,13.32,12.10,283.6
"2010-03-29 01:35:30",1803348,7.351,322,6.905,1.372,13.56,104.6932,11.29,12.52,12.86,0,110.2,13.32,12.08,284.0
"2010-03-29 01:36:00",1803349,5.762,313.3,1.975,0.159,11.3,104.6766,11.24,12.36,12.72,0,110.2,13.35,12.04,275.3
"2010-03-29 01:36:30",1803350,7.405,321.3,6.877,1.177,14.38,104.6721,11.23,12.57,13.01,0,110.2,13.32,12.02,283.3
"2010-03-29 01:37:00",1803351,6.917,320.5,7.121,1.36,13.66,104.6757,11.24,12.45,12.9,0,110.2,13.32,12.03,282.5
"2010-03-29 01:37:30",1803352,5.708,312.7,1.816,0.453,10.94,104.6771,11.25,12.37,12.9,0,110.2,13.36,12.04,274.7
"2010-03-29 01:38:00",1803353,7.344,318.2,6.245,1.277,13.06,104.6795,11.25,12.46,12.94,0,110.2,13.32,12.04,280.2
"2010-03-29 01:38:30",1803354,6.266,314.2,2.556,0.716,11.38,104.676,11.24,12.36,12.68,0,110.2,13.32,12.03,276.2
"2010-03-29 01:39:00",1803355,6.285,311.7,6.112,0.989,11.99,104.6623,11.21,12.33,12.65,0,110.2,13.32,12.00,273.7
"2010-03-29 01:39:30",1803356,7.269,316.5,6.967,1.395,13.84,104.6625,11.21,12.38,12.7,0,110.2,13.32,12.00,278.5
"2010-03-29 01:40:00",1803357,7.667,317.9,7.142,1.275,14.65,104.6666,11.22,12.35,12.67,0,110.3,13.32,12.01,279.9
"2010-03-29 01:40:30",1803358,7.616,317.6,6.645,1.328,14.24,104.6687,11.22,12.53,12.83,0,110.2,13.32,12.02,279.6
"2010-03-29 01:41:00",1803359,6.357,313.6,5.502,0.871,11.84,104.671,11.23,12.42,12.69,0,110.2,13.33,12.02,275.6
"2010-03-29 01:41:30",1803360,6.865,315.5,5.682,1.238,12.34,104.6688,11.22,12.27,12.62,0,110.2,13.33,12.02,277.5
"2010-03-29 01:42:00",1803361,7.109,317.3,6.809,1.342,12.95,104.662,11.21,12.37,12.73,0,110.2,13.33,12.00,279.3
"2010-03-29 01:42:30",1803362,5.906,311.3,1.341,0.141,11.09,104.6544,11.19,12.28,12.66,0,110.2,13.36,11.98,273.3
"2010-03-29 01:43:00",1803363,7.186,318.5,6.581,1.378,13.73,104.6423,11.16,12.32,12.76,0,110.2,13.33,11.95,280.5
"2010-03-29 01:43:30",1803364,6.395,312.4,5.5,0.861,12.14,104.6378,11.15,12.41,12.84,0,110.2,13.33,11.94,274.4
"2010-03-29 01:44:00",1803365,8.19,321.6,6.216,1.345,14.58,104.6378,11.15,12.44,12.91,0,110.2,13.33,11.94,283.6
"2010-03-29 01:44:30",1803366,8.16,318.6,6.656,1.237,14.28,104.6378,11.15,12.35,12.75,0,110.2,13.32,11.94,280.6
"2010-03-29 01:45:00",1803367,7.748,316.1,7.902,1.555,12.89,104.6366,11.14,12.29,12.74,0,110.2,13.32,11.93,278.1
"2010-03-29 01:45:30",1803368,7.663,318.1,6.532,1.175,12.59,104.6299,11.13,12.31,12.78,0,110.2,13.33,11.92,280.1
"2010-03-29 01:46:00",1803369,6.975,311.5,3.081,0.794,11.02,104.6183,11.1,12.14,12.64,0,110.2,13.32,11.89,273.5
"2010-03-29 01:46:30",1803370,7.576,315.9,6.716,1.213,13.12,104.6048,11.06,12.19,12.69,0,110.2,13.32,11.85,277.9